EW1970 Weather Reports


time (UTC)temp
C
wind
direction
speed
KPH
gust
KPH
rain 1hr
cm
rain 24hr
cm
rain mn
cm
humidity
%
barometer
mb
20260505011504 23 154 0.0 6.4 0.00 0.00 0.00 70 1009.2
20260505010028 24 244 1.6 9.7 0.00 0.00 0.00 1009.2
20260505004524 25 282 0.0 12.9 0.00 0.00 0.00 67 1009.3
20260505003031 25 314 1.6 17.7 0.00 0.00 0.00 67 1009.2
20260505001504 25 258 1.6 12.9 0.00 0.00 0.00 66 1009.0
20260505000009 25 275 3.2 11.3 0.00 0.00 0.00 66 1009.1
20260504234526 26 208 4.8 14.5 0.00 0.00 0.00 65 1009.3
20260504233016 26 86 3.2 12.9 0.00 0.00 0.00 63 1009.5
20260504231522 26 240 3.2 14.5 0.00 0.00 0.00 64 1009.5
20260504230002 27 78 3.2 17.7 0.00 0.00 0.00 60 1009.5
20260504224509 27 173 4.8 17.7 0.00 0.00 0.00 60 1009.8
20260504223015 27 243 3.2 12.9 0.00 0.00 0.00 60 1009.8
20260504221519 27 25 1.6 16.1 0.00 0.00 0.00 62 1009.9
20260504220024 27 208 1.6 14.5 0.00 0.00 0.00 63 1009.9
20260504214505 27 300 1.6 11.3 0.00 0.00 0.00 64 1009.9
20260504213012 27 96 3.2 14.5 0.00 0.00 0.00 64 1010.3
20260504211530 26 103 1.6 8.0 0.00 0.00 0.00 63 1010.6
20260504210024 27 205 1.6 12.9 0.00 0.00 0.00 64 1011.0
20260504204526 26 236 1.6 12.9 0.00 0.00 0.00 68 1011.2
20260504203010 26 86 1.6 11.3 0.00 0.00 0.00 65 1011.4
20260504201516 27 75 3.2 20.9 0.00 0.00 0.00 63 1011.7
20260504200019 27 180 3.2 12.9 0.00 0.00 0.00 63 1011.8
20260504194525 26 230 3.2 20.9 0.00 0.00 0.00 64 1012.3
20260504193010 27 259 3.2 12.9 0.00 0.00 0.00 61 1012.4
20260504191511 26 255 4.8 14.5 0.00 0.00 0.00 68 1012.7
20260504190003 26 257 3.2 14.5 0.00 0.00 0.00 63 1013.0
20260504184504 26 140 4.8 20.9 0.00 0.00 0.00 62 1012.9
20260504183006 26 276 3.2 11.3 0.00 0.00 0.00 66 1013.4
20260504181510 26 99 3.2 12.9 0.00 0.00 0.00 67 1013.9
20260504180028 25 113 3.2 14.5 0.00 0.00 0.00 64 1013.9
20260504174504 24 213 4.8 17.7 0.00 0.00 0.00 66 1014.0
20260504173006 23 202 1.6 17.7 0.00 0.00 0.00 68 1014.4
20260504171510 23 240 4.8 20.9 0.00 0.00 0.00 70 1014.8
20260504081503 16 311 0.0 4.8 0.00 0.03 0.00 77 1015.7
20260504050013 17 173 0.0 4.8 0.00 0.03 0.00 69 1017.8
20260504044508 17 274 0.0 8.0 0.00 0.03 0.03 67 1017.9
20260504043012 17 72 1.6 6.4 0.00 0.03 0.03 65 1018.0
20260504041512 17 198 0.0 4.8 0.00 0.03 0.03 66 1018.2
20260504040008 16 104 0.0 4.8 0.00 0.03 0.03 67 1018.3
20260504034510 15 105 0.0 0.0 0.00 0.03 0.03 70 1017.9
20260504033012 15 105 0.0 0.0 0.00 0.03 0.03 70 1017.9
20260504031514 16 105 0.0 0.0 0.00 0.03 0.03 69 1018.0
20260504030015 16 105 0.0 0.0 0.00 0.03 0.03 64 1018.0
20260504024510 17 105 0.0 0.0 0.00 0.03 0.03 64 1018.1
20260504023016 17 105 0.0 0.0 0.00 0.03 0.03 60 1017.7
20260504021517 17 105 0.0 0.0 0.00 0.03 0.03 62 1017.8
20260504020016 18 105 0.0 0.0 0.00 0.03 0.03 56 1017.7
20260504014515 18 105 0.0 0.0 0.00 0.03 0.03 55 1017.3
20260504013021 19 105 0.0 1.6 0.00 0.03 0.03 53 1017.3